| time (UTC) | temp F | wind direction | speed MPH | gust MPH | rain 1hr in | rain 24hr in | rain mn in | humidity % | barometer mb |
| 20260507195453 | 67 | 208 | 9.0 | 10.0 | 0.00 | 1.62 | 1.62 | 99 | 1024.9 |
| 20260507194950 | 66 | 225 | 7.0 | 14.0 | 0.00 | 1.62 | 1.62 | 99 | 1024.9 |
| 20260507194447 | 64 | 216 | 11.0 | 17.0 | 0.00 | 1.62 | 1.62 | 99 | 1025.6 |
| 20260507193942 | 68 | 250 | 8.0 | 13.0 | 0.00 | 1.62 | 1.62 | 99 | 1025.6 |
| 20260507193440 | 68 | 213 | 7.0 | 11.0 | 0.00 | 1.62 | 1.62 | 99 | 1025.2 |
| 20260507192937 | 68 | 201 | 10.0 | 13.0 | 0.00 | 1.62 | 1.62 | 99 | 1025.2 |
| 20260507192433 | 68 | 161 | 9.0 | 14.0 | 0.07 | 1.62 | 1.62 | 99 | 1025.6 |
| 20260507191930 | 68 | 219 | 12.0 | 15.0 | 0.19 | 1.62 | 1.62 | 99 | 1025.2 |
| 20260507191426 | 68 | 158 | 8.0 | 10.0 | 0.35 | 1.61 | 1.61 | 99 | 1025.2 |
| 20260507190922 | 67 | 183 | 9.0 | 14.0 | 0.43 | 1.59 | 1.59 | 99 | 1024.9 |
| 20260507190420 | 66 | 198 | 11.0 | 17.0 | 0.59 | 1.55 | 1.55 | 99 | 1025.6 |
| 20260507185919 | 64 | 209 | 15.0 | 19.0 | 0.94 | 1.51 | 1.51 | 99 | 1025.6 |
| 20260507185416 | 66 | 206 | 11.0 | 16.0 | 0.71 | 1.43 | 1.43 | 99 | 1025.2 |
| 20260507184913 | 66 | 146 | 4.0 | 14.0 | 0.31 | 1.34 | 1.34 | 99 | 1024.9 |
| 20260507184410 | 67 | 154 | 6.0 | 10.0 | 0.35 | 1.30 | 1.30 | 99 | 1025.2 |
| 20260507183908 | 68 | 180 | 6.0 | 11.0 | 1.20 | 1.28 | 1.28 | 99 | 1025.2 |
| 20260507183405 | 68 | 193 | 11.0 | 13.0 | 2.53 | 1.22 | 1.22 | 99 | 1025.6 |
| 20260507182902 | 69 | 207 | 10.0 | 13.0 | 2.57 | 1.07 | 1.07 | 99 | 1025.6 |
| 20260507182357 | 70 | 166 | 10.0 | 14.0 | 1.37 | 0.79 | 0.79 | 99 | 1025.6 |
| 20260507181855 | 71 | 73 | 10.0 | 11.0 | 1.06 | 0.57 | 0.57 | 99 | 1025.6 |
| 20260507181350 | 70 | 135 | 0.0 | 0.0 | 2.15 | 0.50 | 0.50 | 96 | 1025.6 |
| 20260507180848 | 70 | 295 | 8.0 | 10.0 | 1.72 | 0.33 | 0.33 | 99 | 1026.0 |
| 20260507180344 | 72 | 37 | 5.0 | 8.0 | 0.50 | 0.11 | 0.11 | 99 | 1026.3 |
| 20260507175839 | 72 | 100 | 2.0 | 3.0 | 0.00 | 0.01 | 0.01 | 99 | 1026.0 |
| 20260507175337 | 72 | 39 | 5.0 | 7.0 | 0.00 | 0.00 | 0.00 | 97 | 1026.0 |
| 20260507174835 | 73 | 56 | 1.0 | 3.0 | 0.00 | 0.00 | 0.00 | 97 | 1026.0 |
| 20260507174332 | 73 | 64 | 2.0 | 7.0 | 0.00 | 0.00 | 0.00 | 97 | 1026.0 |
| 20260507173829 | 75 | 81 | 1.0 | 3.0 | 0.00 | 0.00 | 0.00 | 94 | 1026.3 |
| 20260507173326 | 76 | 57 | 1.0 | 3.0 | 0.00 | 0.00 | 0.00 | 90 | 1026.3 |
| 20260507172822 | 77 | 101 | 0.0 | 3.0 | 0.00 | 0.00 | 0.00 | 87 | 1026.3 |
| 20260507172319 | 76 | 116 | 5.0 | 6.0 | 0.00 | 0.00 | 0.00 | 85 | 1026.3 |
| 20260507171815 | 76 | 136 | 4.0 | 6.0 | 0.00 | 0.00 | 0.00 | 86 | 1026.7 |
| 20260507171312 | 75 | 137 | 2.0 | 4.0 | 0.00 | 0.00 | 0.00 | 86 | 1026.7 |
| 20260507170809 | 74 | 133 | 4.0 | 4.0 | 0.00 | 0.00 | 0.00 | 87 | 1026.7 |
| 20260507170305 | 75 | 159 | 6.0 | 9.0 | 0.00 | 0.00 | 0.00 | 87 | 1026.7 |
| 20260507165801 | 77 | 127 | 3.0 | 4.0 | 0.00 | 0.00 | 0.00 | 82 | 1026.7 |
| 20260507165257 | 77 | 130 | 5.0 | 8.0 | 0.00 | 0.00 | 0.00 | 83 | 1026.7 |
| 20260507164753 | 76 | 150 | 5.0 | 7.0 | 0.00 | 0.00 | 0.00 | 83 | 1027.1 |
| 20260507164251 | 75 | 142 | 1.0 | 3.0 | 0.00 | 0.00 | 0.00 | 86 | 1027.1 |
| 20260507163748 | 74 | 154 | 1.0 | 7.0 | 0.00 | 0.00 | 0.00 | 86 | 1027.1 |
| 20260507163246 | 74 | 164 | 4.0 | 4.0 | 0.00 | 0.00 | 0.00 | 86 | 1027.1 |
| 20260507162741 | 74 | 124 | 2.0 | 6.0 | 0.00 | 0.00 | 0.00 | 86 | 1027.4 |
| 20260507162237 | 75 | 136 | 4.0 | 7.0 | 0.00 | 0.00 | 0.00 | 87 | 1027.4 |
| 20260507161734 | 75 | 95 | 0.0 | 1.0 | 0.00 | 0.00 | 0.00 | 86 | 1027.4 |
| 20260507161231 | 75 | 79 | 0.0 | 7.0 | 0.00 | 0.00 | 0.00 | 86 | 1027.4 |
| 20260507160726 | 75 | 100 | 3.0 | 4.0 | 0.00 | 0.00 | 0.00 | 84 | 1027.4 |
| 20260507160224 | 76 | 108 | 6.0 | 9.0 | 0.00 | 0.00 | 0.00 | 84 | 1027.9 |
| 20260507155720 | 76 | 115 | 2.0 | 7.0 | 0.00 | 0.00 | 0.00 | 84 | 1027.4 |
| 20260507155216 | 76 | 109 | 3.0 | 6.0 | 0.00 | 0.00 | 0.00 | 84 | 1027.4 |
| 20260507154713 | 75 | 128 | 0.0 | 8.0 | 0.00 | 0.00 | 0.00 | 85 | 1027.9 |
| 20260507154210 | 74 | 133 | 4.0 | 8.0 | 0.00 | 0.00 | 0.00 | 86 | 1027.9 |
| 20260507153707 | 75 | 135 | 5.0 | 9.0 | 0.00 | 0.00 | 0.00 | 84 | 1027.4 |
| 20260507153203 | 74 | 99 | 2.0 | 7.0 | 0.00 | 0.00 | 0.00 | 88 | 1027.9 |
| 20260507152659 | 75 | 131 | 4.0 | 8.0 | 0.00 | 0.00 | 0.00 | 84 | 1027.9 |
| 20260507152155 | 74 | 162 | 4.0 | 9.0 | 0.00 | 0.00 | 0.00 | 85 | 1027.9 |
| 20260507151652 | 73 | 127 | 2.0 | 3.0 | 0.00 | 0.00 | 0.00 | 88 | 1027.9 |
| 20260507151148 | 75 | 112 | 3.0 | 4.0 | 0.00 | 0.00 | 0.00 | 85 | 1027.9 |
| 20260507150646 | 74 | 148 | 1.0 | 6.0 | 0.00 | 0.00 | 0.00 | 87 | 1027.9 |
| 20260507150143 | 73 | 135 | 5.0 | 8.0 | 0.00 | 0.00 | 0.00 | 86 | 1027.9 |
| 20260507145638 | 74 | 122 | 5.0 | 7.0 | 0.00 | 0.00 | 0.00 | 88 | 1027.9 |
| 20260507145135 | 75 | 121 | 0.0 | 1.0 | 0.00 | 0.00 | 0.00 | 86 | 1027.9 |
| 20260507144631 | 74 | 119 | 4.0 | 9.0 | 0.00 | 0.00 | 0.00 | 88 | 1027.9 |
| 20260507144130 | 74 | 143 | 5.0 | 9.0 | 0.00 | 0.00 | 0.00 | 83 | 1027.9 |
| 20260507143626 | 74 | 128 | 6.0 | 10.0 | 0.00 | 0.00 | 0.00 | 86 | 1028.2 |
| 20260507143123 | 74 | 141 | 11.0 | 13.0 | 0.00 | 0.00 | 0.00 | 86 | 1027.9 |
| 20260507142618 | 73 | 102 | 2.0 | 8.0 | 0.00 | 0.00 | 0.00 | 89 | 1027.9 |
| 20260507142116 | 72 | 147 | 0.0 | 7.0 | 0.00 | 0.00 | 0.00 | 89 | 1027.9 |
| 20260507141612 | 73 | 140 | 9.0 | 10.0 | 0.00 | 0.00 | 0.00 | 89 | 1027.9 |
| 20260507141109 | 71 | 138 | 10.0 | 11.0 | 0.00 | 0.00 | 0.00 | 91 | 1027.9 |
| 20260507140606 | 71 | 130 | 10.0 | 14.0 | 0.00 | 0.00 | 0.00 | 91 | 1027.9 |
| 20260507140103 | 72 | 147 | 6.0 | 10.0 | 0.00 | 0.00 | 0.00 | 91 | 1027.9 |
| 20260507135600 | 72 | 132 | 6.0 | 10.0 | 0.00 | 0.00 | 0.00 | 90 | 1027.9 |
| 20260507135057 | 73 | 109 | 5.0 | 11.0 | 0.00 | 0.00 | 0.00 | 89 | 1027.9 |
| 20260507134554 | 72 | 162 | 7.0 | 11.0 | 0.00 | 0.00 | 0.00 | 90 | 1027.9 |
| 20260507134050 | 73 | 161 | 5.0 | 8.0 | 0.00 | 0.00 | 0.00 | 90 | 1027.9 |
| 20260507133546 | 72 | 164 | 9.0 | 15.0 | 0.00 | 0.00 | 0.00 | 88 | 1027.9 |
| 20260507133044 | 72 | 128 | 7.0 | 14.0 | 0.00 | 0.00 | 0.00 | 90 | 1027.4 |
| 20260507132540 | 72 | 105 | 6.0 | 13.0 | 0.00 | 0.00 | 0.00 | 90 | 1027.9 |
| 20260507132037 | 73 | 161 | 6.0 | 13.0 | 0.00 | 0.00 | 0.00 | 88 | 1027.4 |
| 20260507131534 | 72 | 131 | 6.0 | 16.0 | 0.00 | 0.00 | 0.00 | 90 | 1027.9 |
| 20260507131031 | 71 | 134 | 8.0 | 10.0 | 0.00 | 0.00 | 0.00 | 91 | 1027.4 |
| 20260507130528 | 71 | 151 | 6.0 | 10.0 | 0.00 | 0.00 | 0.00 | 90 | 1027.4 |
| 20260507130026 | 71 | 152 | 2.0 | 11.0 | 0.00 | 0.00 | 0.00 | 92 | 1027.9 |
| 20260507125524 | 71 | 150 | 6.0 | 15.0 | 0.00 | 0.00 | 0.00 | 91 | 1027.4 |
| 20260507125022 | 71 | 171 | 6.0 | 17.0 | 0.00 | 0.00 | 0.00 | 92 | 1027.1 |
| 20260507124518 | 71 | 149 | 11.0 | 13.0 | 0.00 | 0.00 | 0.00 | 90 | 1027.1 |
| 20260507124016 | 71 | 129 | 9.0 | 13.0 | 0.00 | 0.00 | 0.00 | 90 | 1027.4 |
| 20260507123514 | 71 | 156 | 7.0 | 15.0 | 0.00 | 0.00 | 0.00 | 91 | 1027.1 |
| 20260507123010 | 70 | 108 | 7.0 | 15.0 | 0.00 | 0.00 | 0.00 | 92 | 1027.1 |
| 20260507122504 | 70 | 138 | 12.0 | 19.0 | 0.00 | 0.00 | 0.00 | 90 | 1026.7 |
| 20260507122001 | 70 | 170 | 10.0 | 16.0 | 0.00 | 0.00 | 0.00 | 91 | 1026.7 |
| 20260507121456 | 70 | 144 | 8.0 | 13.0 | 0.00 | 0.00 | 0.00 | 92 | 1026.7 |
| 20260507120953 | 70 | 147 | 5.0 | 11.0 | 0.00 | 0.00 | 0.00 | 91 | 1026.3 |
| 20260507120449 | 69 | 110 | 9.0 | 16.0 | 0.00 | 0.00 | 0.00 | 92 | 1026.7 |
| 20260507115946 | 70 | 173 | 7.0 | 14.0 | 0.00 | 0.00 | 0.00 | 93 | 1026.7 |
| 20260507115442 | 69 | 164 | 8.0 | 16.0 | 0.00 | 0.00 | 0.00 | 92 | 1026.7 |
| 20260507114938 | 69 | 143 | 7.0 | 15.0 | 0.00 | 0.00 | 0.00 | 93 | 1026.3 |
| 20260507114435 | 69 | 176 | 7.0 | 13.0 | 0.00 | 0.00 | 0.00 | 94 | 1026.3 |
| 20260507113932 | 69 | 167 | 9.0 | 15.0 | 0.00 | 0.00 | 0.00 | 95 | 1026.3 |
| 20260507113429 | 68 | 173 | 9.0 | 14.0 | 0.00 | 0.00 | 0.00 | 96 | 1026.3 |
| 20260507112926 | 68 | 198 | 7.0 | 13.0 | 0.00 | 0.00 | 0.00 | 95 | 1026.3 |
| 20260507112424 | 68 | 145 | 9.0 | 16.0 | 0.00 | 0.00 | 0.00 | 95 | 1026.3 |
| 20260507111921 | 68 | 154 | 6.0 | 13.0 | 0.00 | 0.00 | 0.00 | 96 | 1026.3 |
| 20260507111418 | 68 | 177 | 3.0 | 11.0 | 0.00 | 0.00 | 0.00 | 96 | 1026.0 |
| 20260507110914 | 68 | 159 | 7.0 | 14.0 | 0.00 | 0.00 | 0.00 | 95 | 1026.3 |
| 20260507110410 | 68 | 180 | 6.0 | 15.0 | 0.00 | 0.00 | 0.00 | 96 | 1026.3 |
| 20260507105907 | 68 | 138 | 8.0 | 11.0 | 0.00 | 0.00 | 0.00 | 96 | 1026.3 |
| 20260507105404 | 67 | 168 | 6.0 | 14.0 | 0.00 | 0.00 | 0.00 | 97 | 1026.3 |
| 20260507104901 | 67 | 167 | 9.0 | 13.0 | 0.00 | 0.00 | 0.00 | 98 | 1026.3 |
| 20260507104357 | 67 | 172 | 3.0 | 13.0 | 0.00 | 0.00 | 0.00 | 98 | 1026.0 |
| 20260507103853 | 67 | 190 | 9.0 | 17.0 | 0.00 | 0.00 | 0.00 | 97 | 1026.0 |
| 20260507103350 | 67 | 163 | 5.0 | 9.0 | 0.00 | 0.00 | 0.00 | 98 | 1026.3 |
| 20260507102846 | 67 | 172 | 6.0 | 14.0 | 0.00 | 0.00 | 0.00 | 98 | 1026.0 |
| 20260507102343 | 67 | 135 | 8.0 | 15.0 | 0.00 | 0.00 | 0.00 | 98 | 1026.0 |
| 20260507101839 | 67 | 163 | 6.0 | 14.0 | 0.00 | 0.00 | 0.00 | 98 | 1026.0 |
| 20260507101334 | 66 | 155 | 11.0 | 15.0 | 0.00 | 0.00 | 0.00 | 98 | 1026.0 |
| 20260507100832 | 66 | 163 | 8.0 | 11.0 | 0.00 | 0.00 | 0.00 | 99 | 1026.0 |
| 20260507100329 | 66 | 193 | 7.0 | 11.0 | 0.00 | 0.00 | 0.00 | 99 | 1025.6 |
| 20260507095827 | 66 | 172 | 8.0 | 19.0 | 0.00 | 0.00 | 0.00 | 99 | 1025.6 |
| 20260507095323 | 66 | 158 | 11.0 | 16.0 | 0.00 | 0.00 | 0.00 | 99 | 1025.6 |
| 20260507094821 | 66 | 179 | 8.0 | 17.0 | 0.00 | 0.00 | 0.00 | 99 | 1025.2 |
| 20260507094317 | 66 | 187 | 10.0 | 14.0 | 0.00 | 0.00 | 0.00 | 99 | 1025.2 |
| 20260507093814 | 66 | 173 | 9.0 | 18.0 | 0.00 | 0.00 | 0.00 | 99 | 1025.2 |
| 20260507093313 | 66 | 179 | 8.0 | 17.0 | 0.00 | 0.00 | 0.00 | 99 | 1025.6 |
| 20260507092810 | 66 | 164 | 7.0 | 13.0 | 0.00 | 0.00 | 0.00 | 99 | 1025.2 |
| 20260507092307 | 66 | 159 | 5.0 | 14.0 | 0.00 | 0.00 | 0.00 | 99 | 1025.6 |
| 20260507091803 | 66 | 188 | 9.0 | 10.0 | 0.00 | 0.00 | 0.00 | 99 | 1025.6 |
| 20260507091300 | 66 | 142 | 7.0 | 10.0 | 0.00 | 0.00 | 0.00 | 99 | 1025.6 |
| 20260507090800 | 66 | 185 | 6.0 | 15.0 | 0.00 | 0.00 | 0.00 | 99 | 1026.0 |
| 20260507090257 | 66 | 144 | 3.0 | 13.0 | 0.00 | 0.00 | 0.00 | 99 | 1026.0 |
| 20260507085754 | 66 | 148 | 5.0 | 9.0 | 0.00 | 0.00 | 0.00 | 99 | 1025.6 |
| 20260507085250 | 66 | 176 | 3.0 | 16.0 | 0.00 | 0.00 | 0.00 | 99 | 1025.6 |
| 20260507084748 | 66 | 166 | 7.0 | 11.0 | 0.00 | 0.00 | 0.00 | 99 | 1026.0 |
| 20260507084244 | 66 | 161 | 7.0 | 9.0 | 0.00 | 0.00 | 0.00 | 99 | 1025.6 |
| 20260507083742 | 66 | 152 | 4.0 | 6.0 | 0.00 | 0.00 | 0.00 | 99 | 1026.0 |
| 20260507083238 | 66 | 147 | 3.0 | 10.0 | 0.00 | 0.00 | 0.00 | 99 | 1025.6 |
| 20260507082734 | 66 | 184 | 6.0 | 10.0 | 0.00 | 0.00 | 0.00 | 99 | 1026.0 |
| 20260507082230 | 66 | 150 | 9.0 | 14.0 | 0.00 | 0.00 | 0.00 | 99 | 1026.0 |
| 20260507081727 | 66 | 154 | 6.0 | 9.0 | 0.00 | 0.00 | 0.00 | 99 | 1026.0 |
| 20260507081223 | 66 | 143 | 7.0 | 14.0 | 0.00 | 0.00 | 0.00 | 99 | 1025.6 |
| 20260507080720 | 66 | 183 | 6.0 | 8.0 | 0.00 | 0.00 | 0.00 | 99 | 1026.0 |
| 20260507080216 | 66 | 144 | 6.0 | 14.0 | 0.00 | 0.00 | 0.00 | 99 | 1025.6 |
| 20260507075711 | 66 | 173 | 9.0 | 11.0 | 0.00 | 0.00 | 0.00 | 99 | 1025.6 |
| 20260507075208 | 66 | 169 | 4.0 | 11.0 | 0.00 | 0.00 | 0.00 | 99 | 1025.6 |
| 20260507074704 | 66 | 131 | 7.0 | 16.0 | 0.00 | 0.00 | 0.00 | 99 | 1025.6 |
| 20260507074203 | 66 | 217 | 3.0 | 10.0 | 0.00 | 0.00 | 0.00 | 99 | 1025.6 |
| 20260507073659 | 66 | 222 | 8.0 | 11.0 | 0.00 | 0.00 | 0.00 | 99 | 1025.6 |
| 20260507073155 | 66 | 175 | 8.0 | 14.0 | 0.00 | 0.00 | 0.00 | 99 | 1025.6 |
| 20260507072653 | 66 | 194 | 3.0 | 11.0 | 0.00 | 0.00 | 0.00 | 98 | 1026.0 |
| 20260507072150 | 66 | 195 | 4.0 | 10.0 | 0.00 | 0.00 | 0.00 | 98 | 1025.6 |
| 20260507071648 | 66 | 181 | 4.0 | 11.0 | 0.00 | 0.00 | 0.00 | 97 | 1026.0 |
| 20260507071144 | 66 | 162 | 4.0 | 9.0 | 0.00 | 0.00 | 0.00 | 97 | 1026.0 |
| 20260507070641 | 66 | 134 | 6.0 | 9.0 | 0.00 | 0.00 | 0.00 | 97 | 1026.0 |
| 20260507070138 | 66 | 194 | 6.0 | 10.0 | 0.00 | 0.00 | 0.00 | 97 | 1026.0 |
| 20260507065634 | 66 | 186 | 6.0 | 13.0 | 0.00 | 0.00 | 0.00 | 97 | 1026.0 |
| 20260507065131 | 66 | 136 | 1.0 | 8.0 | 0.00 | 0.00 | 0.00 | 97 | 1026.0 |
| 20260507064629 | 66 | 190 | 10.0 | 13.0 | 0.00 | 0.00 | 0.00 | 97 | 1026.3 |
| 20260507064127 | 66 | 161 | 6.0 | 8.0 | 0.00 | 0.00 | 0.00 | 98 | 1026.3 |
| 20260507063625 | 66 | 180 | 7.0 | 9.0 | 0.00 | 0.00 | 0.00 | 98 | 1026.3 |
| 20260507063121 | 66 | 132 | 5.0 | 9.0 | 0.00 | 0.00 | 0.00 | 97 | 1026.3 |
| 20260507062618 | 66 | 215 | 3.0 | 6.0 | 0.00 | 0.00 | 0.00 | 96 | 1026.3 |
| 20260507062116 | 66 | 182 | 8.0 | 10.0 | 0.00 | 0.00 | 0.00 | 96 | 1026.7 |
| 20260507061613 | 66 | 178 | 3.0 | 9.0 | 0.00 | 0.00 | 0.00 | 96 | 1026.7 |
| 20260507061111 | 66 | 176 | 5.0 | 9.0 | 0.00 | 0.00 | 0.00 | 95 | 1026.7 |
| 20260507060609 | 66 | 177 | 6.0 | 11.0 | 0.00 | 0.00 | 0.00 | 94 | 1026.7 |
| 20260507060105 | 67 | 185 | 6.0 | 8.0 | 0.00 | 0.00 | 0.00 | 94 | 1026.7 |
| 20260507055601 | 67 | 157 | 5.0 | 9.0 | 0.00 | 0.00 | 0.00 | 94 | 1026.7 |
| 20260507055057 | 67 | 164 | 6.0 | 9.0 | 0.00 | 0.00 | 0.00 | 93 | 1026.7 |
| 20260507054553 | 67 | 153 | 5.0 | 9.0 | 0.00 | 0.00 | 0.00 | 92 | 1027.1 |
| 20260507054050 | 67 | 201 | 5.0 | 8.0 | 0.00 | 0.00 | 0.00 | 92 | 1027.1 |
| 20260507053548 | 67 | 139 | 3.0 | 8.0 | 0.00 | 0.00 | 0.00 | 91 | 1027.1 |
| 20260507053047 | 68 | 200 | 5.0 | 7.0 | 0.00 | 0.00 | 0.00 | 90 | 1027.4 |
| 20260507052544 | 68 | 145 | 6.0 | 9.0 | 0.00 | 0.00 | 0.00 | 89 | 1027.1 |
| 20260507052040 | 68 | 173 | 4.0 | 8.0 | 0.00 | 0.00 | 0.00 | 89 | 1027.4 |
| 20260507051538 | 68 | 169 | 3.0 | 8.0 | 0.00 | 0.00 | 0.00 | 89 | 1027.4 |
| 20260507051035 | 68 | 155 | 5.0 | 8.0 | 0.00 | 0.00 | 0.00 | 90 | 1027.4 |
| 20260507050531 | 68 | 166 | 3.0 | 8.0 | 0.00 | 0.00 | 0.00 | 90 | 1027.4 |
| 20260507050028 | 68 | 169 | 6.0 | 8.0 | 0.00 | 0.00 | 0.00 | 89 | 1027.4 |
| 20260507045524 | 68 | 158 | 5.0 | 7.0 | 0.00 | 0.00 | 0.00 | 90 | 1027.9 |
| 20260507045022 | 68 | 167 | 3.0 | 8.0 | 0.00 | 0.00 | 0.00 | 90 | 1027.9 |
| 20260507044518 | 68 | 190 | 6.0 | 7.0 | 0.00 | 0.00 | 0.00 | 89 | 1027.9 |
| 20260507044015 | 68 | 175 | 4.0 | 7.0 | 0.00 | 0.00 | 0.00 | 90 | 1027.9 |
| 20260507043511 | 68 | 159 | 4.0 | 6.0 | 0.00 | 0.00 | 0.00 | 90 | 1027.9 |
| 20260507043009 | 68 | 159 | 5.0 | 6.0 | 0.00 | 0.00 | 0.00 | 91 | 1028.2 |
| 20260507042504 | 68 | 147 | 4.0 | 6.0 | 0.00 | 0.00 | 0.00 | 91 | 1027.9 |
| 20260507042000 | 68 | 170 | 3.0 | 6.0 | 0.00 | 0.00 | 0.00 | 91 | 1028.2 |
| 20260507041457 | 68 | 154 | 6.0 | 7.0 | 0.00 | 0.00 | 0.00 | 92 | 1028.2 |
| 20260507040954 | 68 | 154 | 6.0 | 6.0 | 0.00 | 0.00 | 0.00 | 93 | 1028.2 |
| 20260507040450 | 68 | 166 | 4.0 | 6.0 | 0.00 | 0.00 | 0.00 | 93 | 1028.2 |
| 20260507035946 | 68 | 155 | 6.0 | 7.0 | 0.00 | 0.00 | 0.00 | 93 | 1028.5 |
| 20260507035443 | 68 | 164 | 4.0 | 7.0 | 0.00 | 0.00 | 0.00 | 93 | 1028.5 |
| 20260507034939 | 68 | 133 | 6.0 | 9.0 | 0.00 | 0.00 | 0.00 | 94 | 1028.5 |
| 20260507034436 | 68 | 164 | 6.0 | 11.0 | 0.00 | 0.00 | 0.00 | 94 | 1028.2 |
| 20260507033935 | 68 | 160 | 4.0 | 8.0 | 0.00 | 0.00 | 0.00 | 93 | 1028.5 |
| 20260507033432 | 67 | 165 | 4.0 | 7.0 | 0.00 | 0.00 | 0.00 | 93 | 1028.5 |
| 20260507032929 | 67 | 188 | 6.0 | 9.0 | 0.00 | 0.00 | 0.00 | 94 | 1028.5 |
| 20260507032426 | 68 | 188 | 8.0 | 10.0 | 0.00 | 0.00 | 0.00 | 94 | 1028.5 |
| 20260507031921 | 68 | 207 | 5.0 | 8.0 | 0.00 | 0.00 | 0.00 | 93 | 1028.5 |
| 20260507031418 | 68 | 194 | 4.0 | 6.0 | 0.00 | 0.00 | 0.00 | 91 | 1028.5 |
| 20260507030915 | 67 | 181 | 4.0 | 6.0 | 0.00 | 0.00 | 0.00 | 93 | 1028.5 |
| 20260507030413 | 67 | 176 | 4.0 | 4.0 | 0.00 | 0.00 | 0.00 | 97 | 1028.5 |
| 20260507025909 | 67 | 186 | 4.0 | 7.0 | 0.00 | 0.00 | 0.00 | 97 | 1028.5 |
| 20260507025407 | 67 | 182 | 4.0 | 7.0 | 0.00 | 0.00 | 0.00 | 98 | 1028.5 |
| 20260507024905 | 67 | 183 | 6.0 | 8.0 | 0.00 | 0.00 | 0.00 | 97 | 1028.5 |
| 20260507024402 | 67 | 200 | 5.0 | 8.0 | 0.00 | 0.00 | 0.00 | 97 | 1028.5 |
| 20260507023857 | 67 | 169 | 4.0 | 8.0 | 0.00 | 0.00 | 0.00 | 96 | 1028.5 |
| 20260507023354 | 68 | 195 | 4.0 | 8.0 | 0.00 | 0.00 | 0.00 | 94 | 1028.5 |
| 20260507022852 | 68 | 187 | 5.0 | 6.0 | 0.00 | 0.00 | 0.00 | 92 | 1028.5 |
| 20260507022348 | 69 | 186 | 6.0 | 6.0 | 0.00 | 0.00 | 0.00 | 89 | 1028.5 |
| 20260507021844 | 69 | 239 | 5.0 | 6.0 | 0.00 | 0.00 | 0.00 | 88 | 1028.5 |
| 20260507021339 | 70 | 235 | 5.0 | 6.0 | 0.00 | 0.00 | 0.00 | 87 | 1028.2 |
| 20260507020837 | 70 | 218 | 3.0 | 4.0 | 0.00 | 0.00 | 0.00 | 85 | 1028.2 |
| 20260507020334 | 70 | 222 | 4.0 | 6.0 | 0.00 | 0.00 | 0.00 | 86 | 1028.2 |
| 20260507015831 | 69 | 200 | 4.0 | 7.0 | 0.00 | 0.00 | 0.00 | 88 | 1028.2 |
| 20260507015329 | 69 | 211 | 6.0 | 8.0 | 0.00 | 0.00 | 0.00 | 90 | 1027.9 |
| 20260507014826 | 68 | 204 | 6.0 | 8.0 | 0.00 | 0.00 | 0.00 | 91 | 1028.2 |
| 20260507014322 | 68 | 191 | 6.0 | 7.0 | 0.00 | 0.00 | 0.00 | 93 | 1028.2 |
| 20260507013818 | 68 | 204 | 6.0 | 7.0 | 0.00 | 0.00 | 0.00 | 93 | 1028.2 |
| 20260507013315 | 67 | 213 | 6.0 | 8.0 | 0.00 | 0.00 | 0.00 | 96 | 1027.9 |
| 20260507012808 | 67 | 197 | 6.0 | 8.0 | 0.00 | 0.00 | 0.00 | 98 | 1028.2 |
| 20260507012306 | 67 | 201 | 6.0 | 7.0 | 0.00 | 0.00 | 0.00 | 98 | 1027.9 |
| 20260507011801 | 67 | 207 | 6.0 | 8.0 | 0.00 | 0.00 | 0.00 | 98 | 1027.9 |
| 20260507011257 | 67 | 195 | 6.0 | 7.0 | 0.00 | 0.00 | 0.00 | 99 | 1028.2 |
| 20260507010756 | 67 | 211 | 5.0 | 8.0 | 0.00 | 0.00 | 0.00 | 99 | 1027.9 |
| 20260507010253 | 67 | 196 | 8.0 | 9.0 | 0.00 | 0.00 | 0.00 | 99 | 1027.9 |
| 20260507005750 | 67 | 183 | 6.0 | 8.0 | 0.00 | 0.00 | 0.00 | 99 | 1027.9 |
| 20260507005246 | 67 | 174 | 5.0 | 8.0 | 0.00 | 0.00 | 0.00 | 99 | 1027.9 |
| 20260507004743 | 67 | 218 | 8.0 | 9.0 | 0.00 | 0.00 | 0.00 | 99 | 1027.9 |
| 20260507004241 | 68 | 200 | 6.0 | 8.0 | 0.00 | 0.00 | 0.00 | 99 | 1027.9 |
| 20260507003737 | 68 | 211 | 8.0 | 9.0 | 0.00 | 0.00 | 0.00 | 97 | 1027.9 |
| 20260507003232 | 68 | 209 | 6.0 | 7.0 | 0.00 | 0.00 | 0.00 | 96 | 1027.9 |
| 20260507002729 | 68 | 224 | 4.0 | 4.0 | 0.00 | 0.00 | 0.00 | 96 | 1027.9 |
| 20260507002225 | 68 | 213 | 4.0 | 6.0 | 0.00 | 0.00 | 0.00 | 96 | 1027.9 |
| 20260507001721 | 68 | 209 | 3.0 | 3.0 | 0.00 | 0.00 | 0.00 | 95 | 1027.9 |
| 20260507001219 | 68 | 186 | 4.0 | 6.0 | 0.00 | 0.00 | 0.00 | 95 | 1027.4 |
| 20260507000715 | 68 | 186 | 5.0 | 6.0 | 0.00 | 0.00 | 0.00 | 96 | 1027.4 |
| 20260507000212 | 68 | 192 | 6.0 | 7.0 | 0.00 | 0.00 | 0.00 | 96 | 1027.4 |
| 20260506235708 | 68 | 194 | 5.0 | 7.0 | 0.00 | 0.00 | 0.00 | 95 | 1027.4 |
| 20260506235203 | 68 | 207 | 4.0 | 6.0 | 0.00 | 0.00 | 0.00 | 95 | 1027.4 |
| 20260506234700 | 68 | 201 | 5.0 | 8.0 | 0.00 | 0.00 | 0.00 | 94 | 1027.1 |
| 20260506234157 | 68 | 179 | 3.0 | 6.0 | 0.00 | 0.00 | 0.00 | 94 | 1027.1 |
| 20260506233655 | 68 | 176 | 2.0 | 6.0 | 0.00 | 0.00 | 0.00 | 94 | 1027.1 |
| 20260506233152 | 68 | 193 | 5.0 | 7.0 | 0.00 | 0.00 | 0.00 | 93 | 1027.1 |
| 20260506232648 | 68 | 202 | 6.0 | 8.0 | 0.00 | 0.00 | 0.00 | 93 | 1027.1 |
| 20260506232143 | 68 | 205 | 6.0 | 8.0 | 0.00 | 0.00 | 0.00 | 94 | 1026.7 |
| 20260506231641 | 68 | 155 | 4.0 | 11.0 | 0.00 | 0.00 | 0.00 | 94 | 1026.7 |
| 20260506231139 | 68 | 206 | 6.0 | 10.0 | 0.00 | 0.00 | 0.00 | 94 | 1026.7 |
| 20260506230636 | 69 | 160 | 6.0 | 8.0 | 0.00 | 0.00 | 0.00 | 94 | 1026.7 |
| 20260506230132 | 69 | 213 | 7.0 | 10.0 | 0.00 | 0.00 | 0.00 | 94 | 1026.7 |
| 20260506225629 | 69 | 198 | 7.0 | 10.0 | 0.00 | 0.00 | 0.00 | 94 | 1026.7 |
| 20260506225126 | 69 | 201 | 8.0 | 10.0 | 0.00 | 0.00 | 0.00 | 94 | 1026.7 |
| 20260506224622 | 69 | 177 | 7.0 | 11.0 | 0.00 | 0.00 | 0.00 | 95 | 1026.7 |
| 20260506224119 | 69 | 167 | 5.0 | 11.0 | 0.00 | 0.00 | 0.00 | 94 | 1026.7 |
| 20260506223615 | 69 | 219 | 9.0 | 11.0 | 0.00 | 0.00 | 0.00 | 94 | 1026.7 |
| 20260506223111 | 69 | 167 | 4.0 | 14.0 | 0.00 | 0.00 | 0.00 | 94 | 1026.3 |
| 20260506222608 | 70 | 196 | 6.0 | 11.0 | 0.00 | 0.00 | 0.00 | 93 | 1026.3 |
| 20260506222104 | 70 | 172 | 5.0 | 10.0 | 0.00 | 0.00 | 0.00 | 93 | 1026.3 |
| 20260506221603 | 70 | 231 | 9.0 | 14.0 | 0.00 | 0.00 | 0.00 | 93 | 1026.7 |
| 20260506221100 | 70 | 215 | 6.0 | 14.0 | 0.00 | 0.00 | 0.00 | 93 | 1026.3 |
| 20260506220556 | 70 | 198 | 8.0 | 11.0 | 0.00 | 0.00 | 0.00 | 92 | 1026.3 |
| 20260506220051 | 71 | 197 | 6.0 | 11.0 | 0.00 | 0.00 | 0.00 | 91 | 1026.0 |
| 20260506215549 | 71 | 210 | 8.0 | 13.0 | 0.00 | 0.00 | 0.00 | 90 | 1026.3 |
| 20260506215044 | 71 | 209 | 5.0 | 11.0 | 0.00 | 0.00 | 0.00 | 90 | 1026.3 |
| 20260506214541 | 72 | 176 | 7.0 | 13.0 | 0.00 | 0.00 | 0.00 | 89 | 1026.0 |
| 20260506214039 | 72 | 160 | 4.0 | 9.0 | 0.00 | 0.00 | 0.00 | 89 | 1026.3 |
| 20260506213537 | 72 | 193 | 8.0 | 11.0 | 0.00 | 0.00 | 0.00 | 89 | 1026.3 |
| 20260506213034 | 72 | 206 | 5.0 | 11.0 | 0.00 | 0.00 | 0.00 | 88 | 1026.3 |
| 20260506212530 | 72 | 153 | 6.0 | 10.0 | 0.00 | 0.00 | 0.00 | 87 | 1026.3 |
| 20260506212025 | 73 | 192 | 6.0 | 11.0 | 0.00 | 0.00 | 0.00 | 88 | 1026.0 |
| 20260506211521 | 73 | 165 | 8.0 | 13.0 | 0.00 | 0.00 | 0.00 | 87 | 1026.0 |
| 20260506211018 | 73 | 219 | 5.0 | 9.0 | 0.00 | 0.00 | 0.00 | 86 | 1026.0 |
| 20260506210514 | 73 | 160 | 11.0 | 14.0 | 0.00 | 0.00 | 0.00 | 86 | 1026.0 |
| 20260506210006 | 73 | 171 | 8.0 | 10.0 | 0.00 | 0.00 | 0.00 | 85 | 1026.0 |
| 20260506205502 | 74 | 158 | 2.0 | 10.0 | 0.00 | 0.00 | 0.00 | 87 | 1026.0 |
| 20260506204957 | 74 | 200 | 6.0 | 14.0 | 0.00 | 0.00 | 0.00 | 86 | 1026.0 |
| 20260506204456 | 74 | 170 | 4.0 | 10.0 | 0.00 | 0.00 | 0.00 | 84 | 1026.0 |
| 20260506203947 | 74 | 157 | 7.0 | 9.0 | 0.00 | 0.00 | 0.00 | 82 | 1026.0 |
| 20260506203444 | 74 | 132 | 8.0 | 14.0 | 0.00 | 0.00 | 0.00 | 83 | 1026.0 |
| 20260506202941 | 75 | 196 | 7.0 | 10.0 | 0.00 | 0.00 | 0.00 | 81 | 1026.0 |
| 20260506202439 | 75 | 143 | 5.0 | 8.0 | 0.00 | 0.00 | 0.00 | 81 | 1026.0 |
| 20260506201935 | 75 | 197 | 9.0 | 10.0 | 0.00 | 0.00 | 0.00 | 81 | 1026.0 |
| 20260506201433 | 75 | 168 | 4.0 | 6.0 | 0.00 | 0.00 | 0.00 | 82 | 1026.0 |
| 20260506200929 | 75 | 174 | 7.0 | 11.0 | 0.00 | 0.00 | 0.00 | 80 | 1026.0 |
| 20260506200425 | 74 | 161 | 4.0 | 14.0 | 0.00 | 0.00 | 0.00 | 81 | 1026.0 |
| 20260506195922 | 75 | 183 | 6.0 | 11.0 | 0.00 | 0.00 | 0.00 | 78 | 1026.0 |